Location: Middle Street
(51.7167°N, 0.0333°E)
Time: 19:32:20
(UTC+00:00)

Cosmos 2263 Rocket - Pass Details

Date: 20 January 2021
Orbit: 825 x 847 km, 71.0° (Epoch: 27 February)

Event Time Altitude Azimuth Distance (km) Brightness Sun altitude
Rises 17:14:22 0° 197° (SSW) 3,396 6.0 -7.2°
Reaches altitude 10° 17:16:49 10° 194° (SSW) 2,464 5.2 -7.6°
Maximum altitude 17:22:24 63° 115° (ESE) 939 2.3 -8.4°
Drops below altitude 10° 17:28:00 10° 35° (NE) 2,470 4.1 -9.2°
Enters shadow 17:29:06 - 34° (NNE) 2,885 4.5 -9.3°
